Time,TemperatureF,DewpointF,PressureIn,WindDirection,WindDirectionDegrees,WindSpeedMPH,WindSpeedGustMPH,Humidity,HourlyPrecipIn,Conditions,Clouds,dailyrainin,SoftwareType,DateUTC
2013-08-03 00:12:00,67.5,60.8,29.84,ENE,67,6.3,-999.0,79,-99.99,,,0.00,Acu-Link.com,2013-08-03 05:12:00,
2013-08-03 00:27:00,66.7,59.6,29.84,NE,45,8.3,-999.0,78,-99.99,,,0.00,Acu-Link.com,2013-08-03 05:27:00,
2013-08-03 00:42:00,66.4,59.7,29.85,ENE,67,8.3,-999.0,79,-99.99,,,0.00,Acu-Link.com,2013-08-03 05:42:00,
2013-08-03 00:57:00,65.8,59.1,29.85,NE,45,5.8,-999.0,79,-99.99,,,0.00,Acu-Link.com,2013-08-03 05:57:00,
2013-08-03 01:12:00,65.5,58.8,29.84,ENE,67,7.3,-999.0,79,-99.99,,,0.00,Acu-Link.com,2013-08-03 06:12:00,
2013-08-03 01:27:00,65.1,58.4,29.84,NNE,22,6.8,-999.0,79,-99.99,,,0.00,Acu-Link.com,2013-08-03 06:27:00,
2013-08-03 01:43:00,64.8,58.1,29.85,NE,45,8.9,-999.0,79,-99.99,,,0.00,Acu-Link.com,2013-08-03 06:43:00,
2013-08-03 01:58:00,64.6,57.9,29.83,NE,45,6.3,-999.0,79,-99.99,,,0.00,Acu-Link.com,2013-08-03 06:58:00,
2013-08-03 02:13:00,64.6,57.9,29.85,ENE,67,5.3,-999.0,79,-99.99,,,0.00,Acu-Link.com,2013-08-03 07:13:00,
2013-08-03 02:28:00,64.4,58.1,29.85,NE,45,8.3,-999.0,80,-99.99,,,0.00,Acu-Link.com,2013-08-03 07:28:00,
2013-08-03 02:43:00,64.4,58.1,29.86,East,90,4.7,-999.0,80,-99.99,,,0.00,Acu-Link.com,2013-08-03 07:43:00,
2013-08-03 02:59:00,64.4,58.4,29.85,East,90,5.3,-999.0,81,-99.99,,,0.00,Acu-Link.com,2013-08-03 07:59:00,
2013-08-03 03:14:00,64.4,58.4,29.85,East,90,6.8,-999.0,81,-99.99,,,0.00,Acu-Link.com,2013-08-03 08:14:00,
2013-08-03 03:29:00,64.4,58.4,29.86,NE,45,5.3,-999.0,81,-99.99,,,0.00,Acu-Link.com,2013-08-03 08:29:00,
2013-08-03 03:44:00,64.4,58.4,29.85,ENE,67,5.3,-999.0,81,-99.99,,,0.00,Acu-Link.com,2013-08-03 08:44:00,
2013-08-03 03:59:00,64.4,58.4,29.85,NE,45,5.3,-999.0,81,-99.99,,,0.00,Acu-Link.com,2013-08-03 08:59:00,
2013-08-03 04:15:00,64.2,58.2,29.85,NE,45,4.2,-999.0,81,-99.99,,,0.00,Acu-Link.com,2013-08-03 09:15:00,
2013-08-03 04:30:00,63.7,58.4,29.85,NNE,22,2.7,-999.0,83,-99.99,,,0.00,Acu-Link.com,2013-08-03 09:30:00,
2013-08-03 04:45:00,63.5,58.2,29.86,ENE,67,2.7,-999.0,83,-99.99,,,0.00,Acu-Link.com,2013-08-03 09:45:00,
2013-08-03 05:00:00,63.3,58.4,29.88,ENE,67,2.7,-999.0,84,-99.99,,,0.00,Acu-Link.com,2013-08-03 10:00:00,
2013-08-03 05:16:00,63.7,58.4,29.88,North,0,2.7,-999.0,83,-99.99,,,0.00,Acu-Link.com,2013-08-03 10:16:00,
2013-08-03 05:31:00,63.7,58.4,29.87,NW,315,4.7,-999.0,83,-99.99,,,0.00,Acu-Link.com,2013-08-03 10:31:00,
2013-08-03 05:47:00,63.5,58.2,29.87,NNE,22,3.7,-999.0,83,-99.99,,,0.00,Acu-Link.com,2013-08-03 10:47:00,
2013-08-03 06:02:00,62.6,57.7,29.87,NE,45,4.2,-999.0,84,-99.99,,,0.00,Acu-Link.com,2013-08-03 11:02:00,
2013-08-03 06:17:00,62.4,57.5,29.86,ENE,67,4.7,-999.0,84,-99.99,,,0.00,Acu-Link.com,2013-08-03 11:17:00,
2013-08-03 06:32:00,62.4,57.2,29.87,NE,45,4.7,-999.0,83,-99.99,,,0.00,Acu-Link.com,2013-08-03 11:32:00,
2013-08-03 06:47:00,63.0,57.4,29.88,NNE,22,4.2,-999.0,82,-99.99,,,0.00,Acu-Link.com,2013-08-03 11:47:00,
2013-08-03 07:02:00,64.2,57.5,29.88,NNE,22,5.8,-999.0,79,-99.99,,,0.00,Acu-Link.com,2013-08-03 12:02:00,
2013-08-03 07:18:00,65.1,58.1,29.88,ENE,67,3.7,-999.0,78,-99.99,,,0.00,Acu-Link.com,2013-08-03 12:18:00,
2013-08-03 07:33:00,65.8,58.4,29.89,NE,45,5.8,-999.0,77,-99.99,,,0.00,Acu-Link.com,2013-08-03 12:33:00,
2013-08-03 07:48:00,67.6,59.0,29.90,NE,45,6.8,-999.0,74,-99.99,,,0.00,Acu-Link.com,2013-08-03 12:48:00,
2013-08-03 08:03:00,67.3,58.7,29.91,NNE,22,7.8,-999.0,74,-99.99,,,0.00,Acu-Link.com,2013-08-03 13:03:00,
2013-08-03 08:18:00,67.5,58.9,29.93,NE,45,9.4,-999.0,74,-99.99,,,0.00,Acu-Link.com,2013-08-03 13:18:00,
2013-08-03 08:33:00,66.7,58.5,29.93,ENE,67,7.3,-999.0,75,-99.99,,,0.00,Acu-Link.com,2013-08-03 13:33:00,
2013-08-03 08:48:00,66.7,58.5,29.94,ESE,112,9.4,-999.0,75,-99.99,,,0.00,Acu-Link.com,2013-08-03 13:48:00,
2013-08-03 09:03:00,67.3,58.7,29.94,ENE,67,6.8,-999.0,74,-99.99,,,0.00,Acu-Link.com,2013-08-03 14:03:00,
2013-08-03 09:18:00,68.2,59.6,29.94,East,90,7.3,-999.0,74,-99.99,,,0.00,Acu-Link.com,2013-08-03 14:18:00,
2013-08-03 09:33:00,68.5,59.1,29.95,ENE,67,8.3,-999.0,72,-99.99,,,0.00,Acu-Link.com,2013-08-03 14:33:00,
2013-08-03 09:48:00,68.7,58.9,29.96,ENE,67,8.3,-999.0,71,-99.99,,,0.00,Acu-Link.com,2013-08-03 14:48:00,
2013-08-03 10:03:00,69.4,59.2,29.95,East,90,7.3,-999.0,70,-99.99,,,0.00,Acu-Link.com,2013-08-03 15:03:00,
2013-08-03 10:18:00,69.3,59.9,29.96,ESE,112,5.3,-999.0,72,-99.99,,,0.00,Acu-Link.com,2013-08-03 15:18:00,
2013-08-03 10:33:00,70.0,59.4,29.95,East,90,6.3,-999.0,69,-99.99,,,0.00,Acu-Link.com,2013-08-03 15:33:00,
2013-08-03 10:49:00,72.3,60.3,29.95,East,90,9.4,-999.0,66,-99.99,,,0.00,Acu-Link.com,2013-08-03 15:49:00,
2013-08-03 11:04:00,74.7,61.3,29.96,NE,45,8.9,-999.0,63,-99.99,,,0.00,Acu-Link.com,2013-08-03 16:04:00,
2013-08-03 11:19:00,75.6,61.2,29.96,NE,45,9.9,-999.0,61,-99.99,,,0.00,Acu-Link.com,2013-08-03 16:19:00,
2013-08-03 11:34:00,75.7,61.7,29.96,NE,45,6.3,-999.0,62,-99.99,,,0.00,Acu-Link.com,2013-08-03 16:34:00,
2013-08-03 11:49:00,76.6,61.7,29.96,ENE,67,9.9,-999.0,60,-99.99,,,0.00,Acu-Link.com,2013-08-03 16:49:00,
2013-08-03 12:04:00,78.8,63.2,29.97,East,90,9.4,-999.0,59,-99.99,,,0.00,Acu-Link.com,2013-08-03 17:04:00,
2013-08-03 12:19:00,78.8,63.2,29.97,East,90,9.4,-999.0,59,-99.99,,,0.00,Acu-Link.com,2013-08-03 17:19:00,
2013-08-03 12:34:00,77.4,62.9,29.97,ENE,67,9.4,-999.0,61,-99.99,,,0.00,Acu-Link.com,2013-08-03 17:34:00,
2013-08-03 12:50:00,77.9,62.4,29.97,ESE,112,5.3,-999.0,59,-99.99,,,0.00,Acu-Link.com,2013-08-03 17:50:00,
2013-08-03 13:05:00,79.0,63.9,29.97,ENE,67,8.9,-999.0,60,-99.99,,,0.00,Acu-Link.com,2013-08-03 18:05:00,
2013-08-03 13:20:00,78.3,63.7,29.97,North,0,7.3,-999.0,61,-99.99,,,0.00,Acu-Link.com,2013-08-03 18:20:00,
2013-08-03 13:35:00,79.3,63.7,29.97,ENE,67,12.5,-999.0,59,-99.99,,,0.00,Acu-Link.com,2013-08-03 18:35:00,
2013-08-03 13:50:00,80.4,64.7,29.97,ESE,112,8.9,-999.0,59,-99.99,,,0.00,Acu-Link.com,2013-08-03 18:50:00,
2013-08-03 14:05:00,79.3,63.2,29.97,ENE,67,6.3,-999.0,58,-99.99,,,0.00,Acu-Link.com,2013-08-03 19:05:00,
2013-08-03 14:20:00,78.8,62.8,29.97,NNE,22,8.9,-999.0,58,-99.99,,,0.00,Acu-Link.com,2013-08-03 19:20:00,
2013-08-03 14:35:00,79.9,63.3,29.97,NNE,22,6.3,-999.0,57,-99.99,,,0.00,Acu-Link.com,2013-08-03 19:35:00,
2013-08-03 14:51:00,79.5,62.4,29.97,East,90,7.8,-999.0,56,-99.99,,,0.00,Acu-Link.com,2013-08-03 19:51:00,
2013-08-03 15:06:00,79.5,62.9,29.96,NNE,22,4.2,-999.0,57,-99.99,,,0.00,Acu-Link.com,2013-08-03 20:06:00,
2013-08-03 15:21:00,81.3,64.6,29.97,ENE,67,7.8,-999.0,57,-99.99,,,0.00,Acu-Link.com,2013-08-03 20:21:00,
2013-08-03 15:36:00,82.2,65.4,29.96,North,0,6.8,-999.0,57,-99.99,,,0.00,Acu-Link.com,2013-08-03 20:36:00,
2013-08-03 15:52:00,80.4,62.7,29.96,NNE,22,5.3,-999.0,55,-99.99,,,0.00,Acu-Link.com,2013-08-03 20:52:00,
2013-08-03 16:07:00,79.7,63.1,29.95,NNE,22,5.8,-999.0,57,-99.99,,,0.00,Acu-Link.com,2013-08-03 21:07:00,
2013-08-03 16:22:00,78.8,62.8,29.94,ESE,112,5.8,-999.0,58,-99.99,,,0.00,Acu-Link.com,2013-08-03 21:22:00,
2013-08-03 16:37:00,81.0,63.8,29.92,ENE,67,4.7,-999.0,56,-99.99,,,0.00,Acu-Link.com,2013-08-03 21:37:00,
2013-08-03 16:52:00,79.2,64.1,29.91,ESE,112,7.3,-999.0,60,-99.99,,,0.00,Acu-Link.com,2013-08-03 21:52:00,
2013-08-03 17:07:00,78.1,63.5,29.90,ESE,112,4.2,-999.0,61,-99.99,,,0.00,Acu-Link.com,2013-08-03 22:07:00,
2013-08-03 17:22:00,77.9,63.3,29.90,ESE,112,5.3,-999.0,61,-99.99,,,0.00,Acu-Link.com,2013-08-03 22:22:00,
2013-08-03 17:38:00,77.5,63.9,29.89,East,90,6.8,-999.0,63,-99.99,,,0.00,Acu-Link.com,2013-08-03 22:38:00,
2013-08-03 17:53:00,77.7,63.6,29.89,East,90,5.8,-999.0,62,-99.99,,,0.00,Acu-Link.com,2013-08-03 22:53:00,
2013-08-03 18:08:00,77.4,63.8,29.90,ENE,67,5.8,-999.0,63,-99.99,,,0.00,Acu-Link.com,2013-08-03 23:08:00,
2013-08-03 18:23:00,77.2,64.1,29.89,ENE,67,6.8,-999.0,64,-99.99,,,0.00,Acu-Link.com,2013-08-03 23:23:00,
2013-08-03 18:38:00,75.9,63.3,29.90,ENE,67,6.3,-999.0,65,-99.99,,,0.00,Acu-Link.com,2013-08-03 23:38:00,
2013-08-03 18:53:00,77.2,63.6,29.92,ENE,67,8.9,-999.0,63,-99.99,,,0.00,Acu-Link.com,2013-08-03 23:53:00,
2013-08-03 19:08:00,76.5,62.5,29.92,NNE,22,9.4,-999.0,62,-99.99,,,0.00,Acu-Link.com,2013-08-04 00:08:00,
2013-08-03 19:24:00,75.2,62.2,29.92,ENE,67,7.3,-999.0,64,-99.99,,,0.00,Acu-Link.com,2013-08-04 00:24:00,
2013-08-03 19:39:00,74.3,62.2,29.93,ENE,67,4.2,-999.0,66,-99.99,,,0.00,Acu-Link.com,2013-08-04 00:39:00,
2013-08-03 19:54:00,73.9,61.4,29.94,NNW,337,3.2,-999.0,65,-99.99,,,0.00,Acu-Link.com,2013-08-04 00:54:00,
2013-08-03 20:09:00,72.9,61.3,29.94,NNE,22,2.7,-999.0,67,-99.99,,,0.00,Acu-Link.com,2013-08-04 01:09:00,
2013-08-03 20:24:00,71.8,60.7,29.94,NNE,22,4.2,-999.0,68,-99.99,,,0.00,Acu-Link.com,2013-08-04 01:24:00,
2013-08-03 20:40:00,71.1,60.8,29.94,ENE,67,2.2,-999.0,70,-99.99,,,0.00,Acu-Link.com,2013-08-04 01:40:00,
2013-08-03 20:55:00,70.5,60.2,29.94,NNE,22,4.2,-999.0,70,-99.99,,,0.00,Acu-Link.com,2013-08-04 01:55:00,
2013-08-03 21:10:00,69.6,60.2,29.96,NW,315,2.2,-999.0,72,-99.99,,,0.00,Acu-Link.com,2013-08-04 02:10:00,
2013-08-03 21:25:00,68.9,59.9,29.97,North,0,2.2,-999.0,73,-99.99,,,0.00,Acu-Link.com,2013-08-04 02:25:00,
2013-08-03 21:41:00,68.7,59.3,29.96,NE,45,3.2,-999.0,72,-99.99,,,0.00,Acu-Link.com,2013-08-04 02:41:00,
2013-08-03 21:56:00,68.5,59.1,29.96,NE,45,3.7,-999.0,72,-99.99,,,0.00,Acu-Link.com,2013-08-04 02:56:00,
2013-08-03 22:11:00,68.4,59.0,29.97,NE,45,4.2,-999.0,72,-99.99,,,0.00,Acu-Link.com,2013-08-04 03:11:00,
2013-08-03 22:26:00,68.4,58.6,29.98,ENE,67,4.7,-999.0,71,-99.99,,,0.00,Acu-Link.com,2013-08-04 03:26:00,
2013-08-03 22:41:00,67.8,58.4,29.98,NNE,22,4.7,-999.0,72,-99.99,,,0.00,Acu-Link.com,2013-08-04 03:41:00,
2013-08-03 22:57:00,67.6,57.9,29.98,NE,45,3.7,-999.0,71,-99.99,,,0.00,Acu-Link.com,2013-08-04 03:57:00,
2013-08-03 23:12:00,67.5,57.8,29.98,ENE,67,3.7,-999.0,71,-99.99,,,0.00,Acu-Link.com,2013-08-04 04:12:00,
2013-08-03 23:27:00,66.9,57.6,29.99,East,90,4.7,-999.0,72,-99.99,,,0.00,Acu-Link.com,2013-08-04 04:27:00,
2013-08-03 23:42:00,66.7,57.8,29.99,ENE,67,3.2,-999.0,73,-99.99,,,0.00,Acu-Link.com,2013-08-04 04:42:00,
2013-08-03 23:57:00,66.2,57.3,29.99,East,90,2.7,-999.0,73,-99.99,,,0.00,Acu-Link.com,2013-08-04 04:57:00,